Date String (YYYY-MM-DD hh:mm:ss) UTC,Instrument flags,Ambient pressure (hPa),Sample flow (lpm),Bypass flow (lpm),Sample temperature (°C),Ambient temperature (°C),ASC tube jacket temperature (°C),LED temperature (°C),Box temperature (°C),Sample RH (%),Span deviation,Mass concentration (μg/m³),Mass concentration (μg/m³),Mass concentration (μg/m³)
DateTimeUTC,F1_M11,P_M11,Q1_M11,Q2_M11,T1_M11,T2_M11,T3_M11,T4_M11,T5_M11,U1_M11,ZSPAN_M11,X0_M11,X2_M11,X1_M11
2022-05-12 19:00:00,,0821.7,5.01,0.00,29.0,28.0,00.0,38.0,30.7,04.5,0000.0,0012.74,0003.80,0001.66
2022-05-12 19:01:00,,0821.7,4.99,0.00,29.0,28.0,00.0,38.0,30.7,04.6,0000.0,0011.51,0003.73,0001.64
2022-05-12 19:02:00,,0821.8,5.00,0.00,29.0,28.0,00.0,38.0,30.7,04.4,0000.0,0010.90,0003.76,0001.65
2022-05-12 19:03:00,,0821.8,5.00,0.00,29.0,28.0,00.0,38.0,30.7,04.4,0000.0,0010.31,0003.78,0001.65
2022-05-12 19:04:00,,0821.8,5.00,0.00,29.0,28.0,00.0,38.0,30.8,04.5,0000.0,0010.83,0003.77,0001.65
2022-05-12 19:05:00,,0821.5,5.00,0.00,29.0,28.0,00.0,38.0,30.7,04.9,0000.0,0010.82,0003.77,0001.64
2022-05-12 19:06:00,,0821.7,5.01,0.00,29.0,28.0,00.0,38.0,30.7,04.7,0000.0,0010.89,0003.79,0001.64
2022-05-12 19:07:00,,0821.6,4.99,0.00,29.0,28.0,00.0,38.0,30.7,04.7,0000.0,0011.19,0003.85,0001.66
2022-05-12 19:08:00,,0821.7,5.01,0.00,29.0,28.0,00.0,38.0,30.7,04.6,0000.0,0011.23,0003.85,0001.66
2022-05-12 19:09:00,,0821.7,4.99,0.00,29.0,28.0,00.0,38.0,30.7,04.3,0000.0,0011.31,0003.82,0001.65
2022-05-12 19:10:00,,0821.6,5.01,0.00,29.0,28.0,00.0,38.0,30.7,04.8,0000.0,0011.34,0003.83,0001.63
2022-05-12 19:11:00,,0821.7,5.01,0.00,29.0,28.0,00.0,38.0,30.8,04.9,0000.0,0011.43,0003.87,0001.63
2022-05-12 19:12:00,,0821.6,4.99,0.00,29.0,28.0,00.0,37.9,30.7,04.7,0000.0,0011.50,0003.89,0001.64
2022-05-12 19:13:00,,0821.8,5.00,0.00,29.0,28.0,00.0,38.0,30.8,04.5,0000.0,0011.52,0003.91,0001.64
2022-05-12 19:14:00,,0821.6,4.99,0.00,29.0,28.0,00.0,38.0,30.8,04.8,0000.0,0011.42,0003.88,0001.63
2022-05-12 19:15:00,,0821.7,5.00,0.00,29.0,28.0,00.0,37.9,30.7,04.6,0000.0,0010.92,0003.82,0001.61
2022-05-12 19:16:00,,0821.7,5.01,0.00,29.0,28.0,00.0,37.9,30.7,04.9,0000.0,0010.87,0003.82,0001.62
2022-05-12 19:17:00,,0821.7,4.99,0.00,29.0,28.0,00.0,37.9,30.7,04.6,0000.0,0010.81,0003.80,0001.61
2022-05-12 19:18:00,,0821.6,5.01,0.00,29.0,28.0,00.0,37.9,30.7,04.7,0000.0,0010.39,0003.74,0001.60
2022-05-12 19:19:00,,0821.6,5.00,0.00,29.0,27.9,00.0,37.9,30.7,04.9,0000.0,0009.53,0003.69,0001.60
2022-05-12 19:20:00,,0821.8,5.00,0.00,29.0,27.9,00.0,37.9,30.7,04.8,0000.0,0009.22,0003.71,0001.59
2022-05-12 19:21:00,,0821.8,4.99,0.00,28.9,27.9,00.0,37.9,30.7,04.7,0000.0,0009.35,0003.71,0001.60
2022-05-12 19:22:00,,0821.8,5.00,0.00,28.9,27.9,00.0,37.9,30.7,04.8,0000.0,0009.34,0003.62,0001.60
2022-05-12 19:23:00,,0821.7,5.00,0.00,29.0,27.9,00.0,37.9,30.7,04.9,0000.0,0009.47,0003.62,0001.60
2022-05-12 19:24:00,,0821.7,4.99,0.00,29.0,27.9,00.0,37.9,30.7,05.0,0000.0,0009.72,0003.61,0001.59
2022-05-12 19:25:00,,0821.8,5.00,0.00,29.0,27.9,00.0,37.9,30.7,04.7,0000.0,0009.48,0003.55,0001.58
2022-05-12 19:26:00,,0821.9,5.00,0.00,28.9,27.9,00.0,37.9,30.7,04.4,0000.0,0009.09,0003.58,0001.60
2022-05-12 19:27:00,,0821.8,5.00,0.00,28.9,27.9,00.0,37.9,30.7,04.7,0000.0,0009.25,0003.58,0001.59
2022-05-12 19:28:00,,0821.8,5.00,0.00,28.9,27.9,00.0,37.9,30.7,04.6,0000.0,0009.35,0003.58,0001.58
2022-05-12 19:29:00,,0821.9,5.00,0.00,28.9,27.9,00.0,37.9,30.7,04.7,0000.0,0009.39,0003.60,0001.58
2022-05-12 19:30:00,,0822.0,4.98,0.00,28.9,27.9,00.0,37.9,30.7,05.1,0000.0,0009.75,0003.64,0001.58
2022-05-12 19:31:00,,0822.1,5.00,0.00,28.9,27.8,00.0,37.9,30.7,04.7,0000.0,0009.87,0003.62,0001.55
2022-05-12 19:32:00,,0822.1,5.00,0.00,28.9,27.9,00.0,37.9,30.7,04.8,0000.0,0010.06,0003.62,0001.54
2022-05-12 19:33:00,,0822.2,5.00,0.00,28.9,27.9,00.0,37.9,30.6,04.9,0000.0,0009.93,0003.64,0001.53
2022-05-12 19:34:00,,0822.2,4.99,0.00,28.9,27.9,00.0,37.9,30.7,05.2,0000.0,0009.97,0003.63,0001.52
2022-05-12 19:35:00,,0822.2,5.01,0.00,28.9,27.9,00.0,37.9,30.7,05.0,0000.0,0009.96,0003.63,0001.52
2022-05-12 19:36:00,,0822.3,5.00,0.00,28.9,27.9,00.0,37.9,30.7,05.3,0000.0,0010.58,0003.68,0001.52
2022-05-12 19:37:00,,0822.2,4.99,0.00,28.9,28.0,00.0,37.9,30.7,05.2,0000.0,0010.81,0003.69,0001.49
2022-05-12 19:38:00,,0822.2,5.01,0.00,28.9,28.0,00.0,37.9,30.7,05.4,0000.0,0010.61,0003.67,0001.48
2022-05-12 19:39:00,,0822.2,5.01,0.00,28.9,27.9,00.0,37.9,30.6,05.3,0000.0,0010.49,0003.63,0001.47
2022-05-12 19:40:00,,0822.2,4.99,0.00,28.9,27.9,00.0,37.9,30.6,05.1,0000.0,0010.77,0003.60,0001.46
2022-05-12 19:41:00,,0822.1,5.00,0.00,28.9,27.9,00.0,37.9,30.6,05.1,0000.0,0010.60,0003.61,0001.46
2022-05-12 19:42:00,,0822.2,5.00,0.00,28.9,27.9,00.0,37.9,30.7,05.0,0000.0,0010.88,0003.60,0001.47
2022-05-12 19:43:00,,0822.2,5.01,0.00,28.9,27.9,00.0,37.9,30.7,04.9,0000.0,0010.66,0003.60,0001.48
2022-05-12 19:44:00,,0822.3,5.00,0.00,28.9,27.9,00.0,37.9,30.6,05.0,0000.0,0011.74,0003.59,0001.48
2022-05-12 19:45:00,,0822.3,5.00,0.00,28.9,27.9,00.0,37.9,30.6,05.1,0000.0,0011.70,0003.57,0001.48
2022-05-12 19:46:00,,0822.3,4.99,0.00,28.9,27.9,00.0,37.9,30.7,04.9,0000.0,0011.44,0003.55,0001.47
2022-05-12 19:47:00,,0822.4,5.01,0.00,28.9,27.9,00.0,37.9,30.7,05.2,0000.0,0010.75,0003.51,0001.48
2022-05-12 19:48:00,,0822.4,5.00,0.00,28.9,27.9,00.0,37.9,30.7,05.0,0000.0,0010.96,0003.50,0001.48
2022-05-12 19:49:00,,0822.5,5.01,0.00,28.9,28.0,00.0,37.9,30.7,05.3,0000.0,0011.07,0003.52,0001.49
2022-05-12 19:50:00,,0822.5,4.99,0.00,28.9,27.9,00.0,37.9,30.6,05.0,0000.0,0011.27,0003.53,0001.50
2022-05-12 19:51:00,,0822.5,5.01,0.00,28.9,27.9,00.0,37.9,30.6,05.2,0000.0,0011.34,0003.53,0001.51
2022-05-12 19:52:00,,0822.5,5.00,0.00,28.9,27.9,00.0,37.9,30.6,05.1,0000.0,0011.51,0003.48,0001.51
2022-05-12 19:53:00,,0822.5,5.00,0.00,28.9,27.9,00.0,37.9,30.6,04.8,0000.0,0011.62,0003.48,0001.52
2022-05-12 19:54:00,,0822.5,5.00,0.00,28.9,27.9,00.0,37.9,30.6,04.8,0000.0,0011.89,0003.48,0001.53
2022-05-12 19:55:00,,0822.5,4.99,0.00,28.9,27.9,00.0,37.9,30.6,04.9,0000.0,0011.14,0003.50,0001.51
2022-05-12 19:56:00,,0822.4,5.00,0.00,28.9,27.9,00.0,37.9,30.6,05.1,0000.0,0010.97,0003.54,0001.52
2022-05-12 19:57:00,,0822.5,4.99,0.00,28.9,28.0,00.0,37.9,30.6,05.2,0000.0,0011.54,0003.58,0001.52
2022-05-12 19:58:00,,0822.4,4.99,0.00,28.9,28.0,00.0,37.9,30.6,05.3,0000.0,0011.65,0003.57,0001.51
2022-05-12 19:59:00,,0822.5,5.01,0.00,28.9,28.0,00.0,37.9,30.5,05.9,0000.0,0011.46,0003.59,0001.52
